DW9007 Weather Reports


Display with metric or nautical units.
time (UTC)temp
F
wind
direction
speed
MPH
gust
MPH
rain 1hr
in
rain 24hr
in
rain mn
in
humidity
%
barometer
mb
20260905140041 79 74 0.0 4.0 0.00 0.00 0.00 91 1012.9
20260905134543 78 80 0.0 2.0 0.00 0.00 0.00 92 1013.1
20260905133024 77 44 0.0 4.0 0.00 0.00 0.00 93 1013.1
20260905131533 75 95 0.0 0.0 0.00 0.00 0.00 94 1013.1
20260905130003 74 95 0.0 0.0 0.00 0.00 0.00 94 1013.2
20260905124505 74 95 0.0 0.0 0.00 0.00 0.00 94 1013.1
20260905123046 74 95 0.0 0.0 0.00 0.00 0.00 94 1013.0
20260905121545 73 95 0.0 0.0 0.00 0.00 0.00 94 1013.0
20260905120032 73 95 0.0 0.0 0.00 0.00 0.00 94 1012.9
20260905114540 73 95 0.0 0.0 0.00 0.00 0.00 93 1012.7
20260905113037 73 95 0.0 0.0 0.00 0.00 0.00 93 1012.6
20260905111531 73 95 0.0 0.0 0.00 0.00 0.00 93 1012.6
20260905110034 73 95 0.0 0.0 0.00 0.00 0.00 93 1012.6
20260905104529 73 95 0.0 0.0 0.00 0.00 0.00 93 1012.5
20260905103027 74 95 0.0 0.0 0.00 0.00 0.00 93 1012.4
20260905101538 74 95 0.0 0.0 0.00 0.00 0.00 92 1012.3
20260905100020 74 95 0.0 0.0 0.00 0.00 0.00 93 1012.3
20260905094511 74 95 0.0 0.0 0.00 0.00 0.00 92 1012.2
20260905093056 74 95 0.0 0.0 0.00 0.00 0.00 92 1012.2
20260905091559 74 95 0.0 0.0 0.00 0.00 0.00 92 1012.2
20260905090030 74 95 0.0 0.0 0.00 0.00 0.00 91 1012.2
20260905084531 74 95 0.0 0.0 0.00 0.00 0.00 91 1012.1
20260905083017 75 95 0.0 0.0 0.00 0.00 0.00 91 1012.0
20260905081517 75 95 0.0 0.0 0.00 0.00 0.00 90 1011.9
20260905080018 75 95 0.0 0.0 0.00 0.00 0.00 90 1011.8
20260905074515 75 95 0.0 0.0 0.00 0.00 0.00 90 1011.9
20260905073017 76 95 0.0 0.0 0.00 0.00 0.00 89 1011.8
20260905071513 76 95 0.0 0.0 0.00 0.00 0.00 89 1011.9
20260905070016 76 95 0.0 0.0 0.00 0.00 0.00 89 1011.6
20260905064518 76 95 0.0 0.0 0.00 0.00 0.00 88 1011.7
20260905063102 76 95 0.0 0.0 0.00 0.00 0.00 88 1011.8
20260905061611 77 95 0.0 0.0 0.00 0.00 0.00 88 1011.7
20260905060055 77 95 0.0 0.0 0.00 0.00 0.00 88 1011.7
20260905054554 77 95 0.0 0.0 0.00 0.00 0.00 88 1011.8
20260905053059 77 95 0.0 0.0 0.00 0.00 0.00 87 1011.9
20260905051552 78 95 0.0 0.0 0.00 0.00 0.00 87 1012.0
20260905050051 78 95 0.0 0.0 0.00 0.00 0.00 86 1011.9
20260905044549 78 95 0.0 0.0 0.00 0.00 0.00 85 1011.9
20260905043029 79 95 0.0 0.0 0.00 0.00 0.00 85 1012.0
20260905041530 79 95 0.0 0.0 0.00 0.00 0.00 84 1012.0
20260905040016 79 95 0.0 0.0 0.00 0.00 0.00 83 1012.2
20260905034506 80 95 0.0 0.0 0.00 0.00 0.00 82 1012.3
20260905033048 80 95 0.0 0.0 0.00 0.00 0.00 81 1012.2
20260905031546 80 95 0.0 0.0 0.00 0.00 0.00 80 1012.3
20260905030035 81 95 0.0 0.0 0.00 0.00 0.00 79 1012.4
20260905024531 81 95 0.0 0.0 0.00 0.00 0.00 78 1012.5
20260905023005 82 95 0.0 0.0 0.00 0.00 0.00 77 1012.7
20260905021503 82 95 0.0 0.0 0.00 0.00 0.00 76 1012.7
20260905020057 83 95 0.0 0.0 0.00 0.00 0.00 75 1012.5
20260905014542 83 95 0.0 0.0 0.00 0.00 0.00 73 1012.5
20260905013022 84 95 0.0 0.0 0.00 0.00 0.00 73 1012.4
20260905011519 85 96 0.0 0.0 0.00 0.00 0.00 71 1012.1
20260905010113 85 96 0.0 0.0 0.00 0.00 0.00 69 1012.1
20260905004611 86 96 0.0 0.0 0.00 0.00 0.00 66 1012.0
20260905003037 87 96 0.0 0.0 0.00 0.00 0.00 65 1012.0
20260905001534 89 96 0.0 0.0 0.00 0.00 0.00 63 1012.0
20260905000030 90 96 0.0 0.0 0.00 0.00 0.00 62 1012.0
20260904234526 91 96 0.0 0.0 0.00 0.00 0.00 61 1012.0
20260904233023 92 96 0.0 0.0 0.00 0.00 0.00 58 1012.0
20260904231525 93 96 0.0 1.0 0.00 0.00 0.00 56 1011.7
20260904230016 94 96 0.0 2.0 0.00 0.00 0.00 54 1011.5
20260904224522 95 92 0.0 3.0 0.00 0.00 0.00 53 1011.5
20260904223058 95 223 0.0 2.0 0.00 0.00 0.00 51 1011.3
20260904221602 95 199 0.0 2.0 0.00 0.00 0.00 51 1011.3
20260904220039 95 148 0.0 3.0 0.00 0.00 0.00 51 1011.3
20260904214539 95 32 0.0 3.0 0.00 0.00 0.00 52 1011.2
20260904213028 95 90 0.0 8.0 0.00 0.00 0.00 51 1011.2
20260904211521 95 101 0.0 4.0 0.00 0.00 0.00 52 1011.2
20260904210004 95 102 0.0 4.0 0.00 0.00 0.00 51 1011.5
20260904204601 96 96 0.0 3.0 0.00 0.00 0.00 50 1011.5
20260904203108 95 274 0.0 6.0 0.00 0.00 0.00 52 1011.6
20260904201539 95 61 0.0 4.0 0.00 0.00 0.00 51 1011.9
20260904200038 96 84 1.0 5.0 0.00 0.00 0.00 52 1012.1
20260904194516 95 70 0.0 5.0 0.00 0.00 0.00 53 1012.3
20260904193013 94 22 0.0 5.0 0.00 0.00 0.00 54 1012.5
20260904191551 94 94 1.0 6.0 0.00 0.00 0.00 54 1012.9
20260904190050 94 64 0.0 5.0 0.00 0.00 0.00 55 1013.0
20260904184530 94 117 1.0 8.0 0.00 0.00 0.00 56 1013.3
20260904183030 93 96 1.0 7.0 0.00 0.00 0.00 59 1013.4
20260904181512 92 109 0.0 3.0 0.00 0.00 0.00 61 1013.7
20260904180012 92 91 1.0 9.0 0.00 0.00 0.00 60 1014.0
20260904174606 92 107 0.0 4.0 0.00 0.00 0.00 63 1014.1
20260904173104 92 103 0.0 4.0 0.00 0.00 0.00 62 1014.3
20260904171542 91 101 3.0 7.0 0.00 0.00 0.00 61 1014.6
20260904170036 91 15 1.0 5.0 0.00 0.00 0.00 63 1014.7
20260904164517 90 82 0.0 7.0 0.00 0.00 0.00 65 1014.8
20260904163017 90 169 0.0 2.0 0.00 0.00 0.00 70 1015.1
20260904161608 90 300 0.0 4.0 0.00 0.00 0.00 69 1015.2
20260904160100 89 209 0.0 3.0 0.00 0.00 0.00 70 1015.2
20260904154540 88 100 0.0 2.0 0.00 0.00 0.00 72 1015.3
20260904153039 86 77 0.0 3.0 0.00 0.00 0.00 73 1015.2
20260904151520 85 126 0.0 2.0 0.00 0.00 0.00 77 1015.1
20260904150020 84 198 0.0 2.0 0.00 0.00 0.00 78 1014.9
20260904144601 83 173 0.0 1.0 0.00 0.00 0.00 82 1014.9
20260904143100 82 173 0.0 0.0 0.00 0.00 0.00 84 1014.8
20260904141543 81 194 0.0 1.0 0.00 0.00 0.00 87 1014.8